FW4251 Weather Reports


time (UTC)temp
F
wind
direction
speed
knots
gust
knots
rain 1hr
in
rain 24hr
in
rain mn
in
humidity
%
barometer
mb
20260509100042 43 360 0.0 1.7 0.00 0.00 0.00 93 1013.1
20260509095539 43 288 0.0 1.7 0.00 0.00 0.00 93 1013.2
20260509095038 43 288 0.0 1.7 0.00 0.00 0.00 93 1013.2
20260509094540 43 360 0.0 1.7 0.00 0.00 0.00 93 1013.2
20260509094036 43 360 0.0 1.7 0.00 0.00 0.00 93 1013.1
20260509093536 43 360 0.0 1.7 0.00 0.00 0.00 93 1013.1
20260509093036 44 288 0.0 0.9 0.00 0.00 0.00 92 1013.0
20260509092535 44 289 0.0 0.9 0.00 0.00 0.00 92 1013.0
20260509092036 43 360 0.0 1.7 0.00 0.00 0.00 92 1013.1
20260509091541 43 360 0.0 1.7 0.00 0.00 0.00 92 1013.0
20260509091035 44 360 0.0 1.7 0.00 0.00 0.00 92 1013.1
20260509090535 44 360 0.0 1.7 0.00 0.00 0.00 92 1013.1
20260509090040 44 360 0.0 1.7 0.00 0.00 0.00 92 1013.2
20260509085534 44 288 0.0 1.7 0.00 0.00 0.00 92 1013.2
20260509085034 43 360 0.0 1.7 0.00 0.00 0.00 92 1013.2
20260509084537 44 289 0.0 1.7 0.00 0.00 0.00 92 1013.2
20260509084035 43 290 0.0 0.9 0.00 0.00 0.00 91 1013.3
20260509083533 43 290 0.0 0.0 0.00 0.00 0.00 91 1013.2
20260509083033 43 290 0.0 0.0 0.00 0.00 0.00 91 1013.1
20260509082532 43 290 0.0 0.0 0.00 0.00 0.00 91 1013.1
20260509082032 43 290 0.0 0.0 0.00 0.00 0.00 91 1013.1
20260509081539 43 290 0.0 0.0 0.00 0.00 0.00 90 1013.1
20260509081033 43 290 0.0 0.9 0.00 0.00 0.00 90 1013.0
20260509080531 43 290 0.0 2.6 0.00 0.00 0.00 90 1013.0
20260509080035 43 290 0.9 2.6 0.00 0.00 0.00 90 1013.1
20260509075532 43 290 0.0 0.9 0.00 0.00 0.00 90 1013.2
20260509075034 43 290 0.0 1.7 0.00 0.00 0.00 89 1013.3
20260509074541 43 290 0.0 1.7 0.00 0.00 0.00 89 1013.2
20260509074029 43 290 0.0 3.5 0.00 0.00 0.00 89 1013.3
20260509073529 43 290 0.9 3.5 0.00 0.00 0.00 88 1013.4
20260509073029 43 290 1.7 3.5 0.00 0.00 0.00 88 1013.4
20260509072529 43 290 1.7 3.5 0.00 0.00 0.00 87 1013.2
20260509072027 43 355 0.9 1.7 0.00 0.00 0.00 87 1013.1
20260509071527 43 355 0.9 1.7 0.00 0.00 0.00 86 1012.9
20260509071027 44 355 0.0 0.0 0.00 0.00 0.00 85 1012.8
20260509070527 44 360 0.0 0.9 0.00 0.00 0.00 84 1012.7
20260509070026 44 360 0.0 1.7 0.00 0.00 0.00 83 1012.6
20260509065525 44 360 0.0 1.7 0.00 0.00 0.00 81 1012.8
20260509065027 44 360 0.0 0.0 0.00 0.00 0.00 81 1012.7
20260509064525 44 355 0.0 0.0 0.00 0.00 0.00 81 1012.7
20260509064027 44 355 0.0 0.0 0.00 0.00 0.00 81 1012.8
20260509063523 44 355 0.0 0.0 0.00 0.00 0.00 81 1012.7
20260509063028 44 355 0.0 0.0 0.00 0.00 0.00 81 1012.8
20260509062525 44 355 0.0 0.0 0.00 0.00 0.00 80 1012.7
20260509062027 44 355 0.0 0.0 0.00 0.00 0.00 80 1012.8
20260509061522 44 355 0.0 0.0 0.00 0.00 0.00 79 1012.9
20260509061032 44 355 0.0 0.0 0.00 0.00 0.00 79 1013.0
20260509060522 44 355 0.0 0.0 0.00 0.00 0.00 80 1013.0
20260509060021 43 355 0.0 0.0 0.00 0.00 0.00 80 1013.0
20260509055520 43 355 0.0 0.0 0.00 0.00 0.00 80 1013.0
20260509055023 43 355 0.0 0.0 0.00 0.00 0.00 81 1013.2
20260509054518 43 360 0.0 0.0 0.00 0.00 0.00 80 1013.3
20260509054017 43 360 0.0 0.0 0.00 0.00 0.00 80 1013.7
20260509053517 43 360 0.0 0.0 0.00 0.00 0.00 80 1013.4
20260509053021 43 360 0.0 0.0 0.00 0.00 0.00 80 1013.3
20260509052516 43 360 0.0 0.0 0.00 0.00 0.00 80 1013.3
20260509052015 43 360 0.0 0.0 0.00 0.00 0.00 80 1013.3
20260509051514 42 360 0.0 0.0 0.00 0.00 0.00 80 1013.3
20260509051017 42 360 0.0 0.0 0.00 0.00 0.00 80 1013.3
20260509050514 42 360 0.0 0.9 0.00 0.00 0.00 80 1013.2
20260509050015 42 360 0.0 0.9 0.00 0.00 0.00 80 1013.3
20260509045518 42 360 0.0 0.0 0.00 0.00 0.00 79 1013.2
20260509045013 42 360 0.0 0.9 0.00 0.00 0.00 79 1013.2
20260509044512 42 360 0.0 0.9 0.00 0.00 0.00 78 1013.2
20260509044019 42 360 0.0 0.9 0.00 0.00 0.00 78 1013.3
20260509043510 42 360 0.0 0.9 0.00 0.00 0.00 77 1013.3
20260509043010 42 360 0.0 0.0 0.00 0.00 0.00 78 1013.4
20260509042512 42 360 0.0 0.0 0.00 0.00 0.00 78 1013.4
20260509042014 42 360 0.0 0.9 0.00 0.00 0.00 78 1013.5
20260509041509 42 360 0.0 0.9 0.00 0.00 0.00 78 1013.3
20260509041007 42 360 0.0 0.9 0.00 0.00 0.00 78 1013.4
20260509040508 42 360 0.0 0.0 0.00 0.00 0.00 77 1013.4
20260509040006 42 360 0.0 0.0 0.00 0.00 0.00 77 1013.3
20260509035506 42 360 0.0 0.9 0.00 0.00 0.00 76 1013.3
20260509035005 42 360 0.0 0.9 0.00 0.00 0.00 76 1013.3
20260509034505 43 360 0.0 0.0 0.00 0.00 0.00 75 1013.4
20260509034006 43 360 0.0 0.0 0.00 0.00 0.00 74 1013.3
20260509033504 43 360 0.0 0.0 0.00 0.00 0.00 74 1013.2
20260509033004 43 360 0.0 0.0 0.00 0.00 0.00 74 1013.1
20260509032504 44 360 0.0 0.0 0.00 0.00 0.00 73 1013.1
20260509032003 44 360 0.0 0.0 0.00 0.00 0.00 72 1013.1
20260509031504 44 360 0.0 0.0 0.00 0.00 0.00 71 1013.1
20260509031004 45 360 0.0 0.0 0.00 0.00 0.00 70 1013.0
20260509030506 45 360 0.0 0.0 0.00 0.00 0.00 69 1012.9
20260509030004 45 360 0.0 0.0 0.00 0.00 0.00 67 1013.1
20260509025503 46 360 0.0 0.9 0.00 0.00 0.00 67 1013.1
20260509025003 45 360 0.0 0.9 0.00 0.00 0.00 66 1013.2
20260509024505 45 360 0.0 0.0 0.00 0.00 0.00 65 1013.2
20260509024003 45 360 0.0 0.0 0.00 0.00 0.00 65 1013.2
20260509023503 45 355 0.0 0.0 0.00 0.00 0.00 64 1013.2
20260509023002 45 360 0.0 0.0 0.00 0.00 0.00 64 1013.2
20260509022503 45 360 0.0 0.0 0.00 0.00 0.00 64 1013.2
20260509022002 45 360 0.0 0.0 0.00 0.00 0.00 64 1013.1
20260509021502 46 360 0.0 0.0 0.00 0.00 0.00 63 1013.1
20260509021001 46 360 0.0 0.0 0.00 0.00 0.00 63 1013.1
20260509020503 47 360 0.0 0.0 0.00 0.00 0.00 62 1013.0
20260509015559 48 360 0.0 0.9 0.00 0.00 0.00 59 1012.8
20260509015059 48 360 0.0 0.9 0.00 0.00 0.00 58 1012.8
20260509014558 48 360 0.0 0.0 0.00 0.00 0.00 57 1012.6
20260509014057 48 360 0.0 0.9 0.00 0.00 0.00 57 1012.6
20260509013557 48 360 0.0 0.9 0.00 0.00 0.00 57 1012.6
20260509013104 49 360 0.0 0.0 0.00 0.00 0.00 55 1012.6
20260509012557 49 360 0.0 0.0 0.00 0.00 0.00 56 1012.6
20260509012058 49 360 0.0 0.0 0.00 0.00 0.00 55 1012.5
20260509011559 48 360 0.0 0.0 0.00 0.00 0.00 54 1012.5
20260509011054 49 360 0.0 0.0 0.00 0.00 0.00 54 1012.4
20260509010554 49 360 0.0 0.0 0.00 0.00 0.00 54 1012.3
20260509010055 49 360 0.0 0.0 0.00 0.00 0.00 53 1012.1
20260509005556 50 360 0.0 0.0 0.00 0.00 0.00 52 1012.0
20260509005054 50 360 0.0 0.0 0.00 0.00 0.00 52 1011.8
20260509004555 50 360 0.0 0.0 0.00 0.00 0.00 52 1011.6
20260509004052 51 360 0.0 0.0 0.00 0.00 0.00 51 1011.5
20260509003553 52 355 0.0 0.9 0.00 0.00 0.00 49 1011.4
20260509003052 52 355 0.0 0.9 0.00 0.00 0.00 48 1011.4
20260509002556 52 355 0.0 0.9 0.00 0.00 0.00 47 1011.5
20260509002053 53 360 0.0 0.0 0.00 0.00 0.00 46 1011.4
20260509001552 54 355 0.0 0.9 0.00 0.00 0.00 45 1011.4
20260509001051 54 355 0.0 1.7 0.00 0.00 0.00 48 1011.4
20260509000555 54 355 0.0 2.6 0.00 0.00 0.00 49 1011.5
20260509000051 54 355 0.9 3.5 0.00 0.00 0.00 45 1011.5
20260508235551 54 355 0.0 3.5 0.00 0.00 0.00 44 1011.5
20260508235054 55 355 0.0 1.7 0.00 0.00 0.00 47 1011.4
20260508234553 55 355 0.0 1.7 0.00 0.00 0.00 45 1011.3
20260508234053 55 355 0.0 2.6 0.00 0.00 0.00 43 1011.3
20260508233550 55 360 0.0 1.7 0.00 0.00 0.00 43 1011.2
20260508233054 56 355 0.0 3.5 0.00 0.00 0.00 40 1011.2
20260508232550 57 355 0.0 3.5 0.00 0.00 0.00 41 1011.1
20260508232050 57 355 0.9 3.5 0.00 0.00 0.00 40 1011.0
20260508231550 57 355 1.7 4.3 0.00 0.00 0.00 40 1011.1
20260508231050 57 336 0.0 4.3 0.00 0.00 0.00 39 1011.1
20260508230549 58 331 1.7 4.3 0.00 0.00 0.00 37 1011.1
20260508230050 58 355 1.7 4.3 0.00 0.00 0.00 38 1011.0
20260508225549 58 336 0.9 3.5 0.00 0.00 0.00 39 1011.0
20260508225048 59 336 1.7 4.3 0.00 0.00 0.00 38 1010.9
20260508224551 59 326 0.9 4.3 0.00 0.00 0.00 40 1010.9
20260508224047 59 319 1.7 5.2 0.00 0.00 0.00 37 1010.8
20260508223551 59 304 3.5 5.2 0.00 0.00 0.00 37 1010.8
20260508223047 59 273 2.6 5.2 0.00 0.00 0.00 37 1010.8
20260508222545 59 355 0.9 6.1 0.00 0.00 0.00 39 1010.8
20260508222045 59 347 3.5 7.0 0.00 0.00 0.00 37 1010.9
20260508221544 59 342 2.6 7.8 0.00 0.00 0.00 38 1010.8
20260508221044 59 355 2.6 7.8 0.00 0.00 0.00 37 1010.8
20260508220643 60 28 2.6 5.2 0.00 0.00 0.00 37 1010.9
20260508220043 60 344 1.7 7.0 0.00 0.00 0.00 38 1010.9
20260508215542 60 337 1.7 8.7 0.00 0.00 0.00 38 1010.8
20260508215042 60 322 0.9 4.3 0.00 0.00 0.00 38 1010.9
20260508214541 60 249 0.9 5.2 0.00 0.00 0.00 37 1010.7
20260508214040 59 340 2.6 7.8 0.00 0.00 0.00 39 1010.9
20260508213539 59 355 2.6 7.8 0.00 0.00 0.00 40 1010.8
20260508213043 59 346 3.5 10.4 0.00 0.00 0.00 41 1010.9
20260508212539 59 315 5.2 9.6 0.00 0.00 0.00 40 1011.0
20260508212039 59 5 3.5 9.6 0.00 0.00 0.00 41 1010.8
20260508211540 59 343 4.3 9.6 0.00 0.00 0.00 42 1011.0
20260508211041 59 355 4.3 9.6 0.00 0.00 0.00 40 1011.0
20260508210538 59 340 4.3 11.3 0.00 0.00 0.00 41 1011.0
20260508210038 59 360 3.5 12.2 0.00 0.00 0.00 43 1011.0
20260508205538 59 309 6.1 12.2 0.00 0.00 0.00 43 1011.0
20260508205038 59 5 5.2 13.0 0.00 0.00 0.00 42 1010.9
20260508204539 59 283 8.7 13.0 0.00 0.00 0.00 42 1011.0
20260508204037 59 344 3.5 13.0 0.00 0.00 0.00 43 1010.9
20260508203539 59 343 4.3 13.0 0.00 0.00 0.00 46 1011.0
20260508203039 59 348 4.3 11.3 0.00 0.00 0.00 45 1010.9
20260508202536 59 5 6.1 11.3 0.00 0.00 0.00 44 1010.9
20260508202039 59 327 4.3 10.4 0.00 0.00 0.00 46 1010.9
20260508201538 59 341 5.2 10.4 0.00 0.00 0.00 45 1010.9
20260508201035 60 336 4.3 9.6 0.00 0.00 0.00 46 1010.9
20260508200535 59 321 3.5 15.6 0.00 0.00 0.00 48 1010.9
20260508200043 58 325 7.0 15.6 0.00 0.00 0.00 47 1011.0
20260508195534 59 17 8.7 15.6 0.00 0.00 0.00 46 1011.1
20260508195034 58 348 7.0 15.6 0.00 0.00 0.00 47 1011.2
20260508194536 59 295 7.0 13.0 0.00 0.00 0.00 46 1011.1
20260508194033 59 14 5.2 11.3 0.00 0.00 0.00 48 1011.2
20260508193532 60 355 5.2 9.6 0.00 0.00 0.00 47 1011.2
20260508193032 59 345 2.6 10.4 0.00 0.00 0.00 49 1011.1
20260508192531 60 360 4.3 7.8 0.00 0.00 0.00 47 1011.2
20260508192030 59 331 3.5 7.8 0.00 0.00 0.00 50 1011.2
20260508191532 59 315 4.3 9.6 0.00 0.00 0.00 47 1011.3
20260508191029 58 342 5.2 11.3 0.00 0.00 0.00 49 1011.3
20260508190528 58 335 4.3 12.2 0.00 0.00 0.00 53 1011.3
20260508190029 58 349 5.2 12.2 0.00 0.00 0.00 52 1011.3
20260508185527 59 330 2.6 8.7 0.00 0.00 0.00 53 1011.3
20260508185029 58 348 1.7 9.6 0.00 0.00 0.00 53 1011.4
20260508184525 57 286 4.3 11.3 0.00 0.00 0.00 53 1011.4
20260508184024 56 347 1.7 11.3 0.00 0.00 0.00 56 1011.4
20260508183527 57 9 2.6 9.6 0.00 0.00 0.00 56 1011.4
20260508183025 57 348 3.5 9.6 0.00 0.00 0.00 56 1011.6
20260508182523 56 84 2.6 9.6 0.00 0.00 0.00 55 1011.5
20260508182022 56 69 0.9 7.8 0.00 0.00 0.00 56 1011.6
20260508181522 56 24 2.6 8.7 0.00 0.00 0.00 56 1011.6
20260508181021 56 360 3.5 11.3 0.00 0.00 0.00 55 1011.7
20260508180521 57 355 5.2 11.3 0.00 0.00 0.00 54 1011.7
20260508180021 56 32 2.6 4.3 0.00 0.00 0.00 57 1011.7
20260508175520 54 340 0.9 5.2 0.00 0.00 0.00 59 1011.7
20260508175022 54 341 2.6 7.8 0.00 0.00 0.00 57 1011.7
20260508174620 54 44 2.6 7.8 0.00 0.00 0.00 57 1011.6
20260508174019 54 351 1.7 7.8 0.00 0.00 0.00 56 1011.7
20260508173518 54 331 2.6 7.0 0.00 0.00 0.00 56 1011.5
20260508173020 55 336 0.9 9.6 0.00 0.00 0.00 57 1011.3
20260508172522 55 350 4.3 9.6 0.00 0.00 0.00 55 1011.2
20260508172018 55 301 1.7 8.7 0.00 0.00 0.00 55 1011.3
20260508171519 56 351 2.6 7.8 0.00 0.00 0.00 58 1011.3
20260508171017 54 242 2.6 7.8 0.00 0.00 0.00 58 1011.4
20260508170518 54 308 1.7 7.8 0.00 0.00 0.00 58 1011.4
20260508170017 53 328 1.7 4.3 0.00 0.00 0.00 58 1011.4
20260508165516 53 329 0.9 3.5 0.00 0.00 0.00 59 1011.5
20260508165017 52 331 1.7 3.5 0.00 0.00 0.00 59 1011.4
20260508164517 52 336 0.9 4.3 0.00 0.00 0.00 58 1011.5
20260508164016 52 336 1.7 5.2 0.00 0.00 0.00 59 1011.7
20260508163515 53 322 2.6 4.3 0.00 0.00 0.00 60 1011.7
20260508163022 52 328 1.7 5.2 0.00 0.00 0.00 63 1011.5
20260508162517 52 309 2.6 7.8 0.00 0.00 0.00 61 1011.8
20260508162018 52 335 3.5 7.8 0.00 0.00 0.00 60 1011.9
20260508161516 52 349 3.5 7.0 0.00 0.00 0.00 61 1011.7
20260508161015 52 335 2.6 9.6 0.00 0.00 0.00 61 1011.8
20260508160515 52 323 2.6 9.6 0.00 0.00 0.00 60 1011.6
20260508160014 52 355 3.5 9.6 0.00 0.00 0.00 58 1011.5
20260508155516 53 323 2.6 4.3 0.00 0.00 0.00 58 1011.7
20260508155014 53 229 0.9 7.8 0.00 0.00 0.00 56 1011.4
20260508154537 53 227 1.7 7.8 0.00 0.00 0.00 53 1011.3
20260508154015 54 323 1.7 7.0 0.00 0.00 0.00 53 1011.4
20260508153512 54 234 3.5 8.7 0.00 0.00 0.00 53 1011.3
20260508153013 55 22 1.7 8.7 0.00 0.00 0.00 52 1011.2
20260508152513 56 189 1.7 5.2 0.00 0.00 0.00 53 1011.1
20260508152011 55 166 2.6 7.0 0.00 0.00 0.00 52 1011.1
20260508151514 54 174 3.5 7.0 0.00 0.00 0.00 53 1011.1
20260508151015 55 241 0.9 6.1 0.00 0.00 0.00 56 1011.1
20260508150512 55 140 0.9 6.1 0.00 0.00 0.00 54 1011.1
20260508150010 55 204 2.6 6.1 0.00 0.00 0.00 56 1011.1
20260508145513 55 200 2.6 7.8 0.00 0.00 0.00 52 1011.1
20260508145010 55 302 3.5 7.8 0.00 0.00 0.00 51 1011.1
20260508144510 55 236 3.5 8.7 0.00 0.00 0.00 51 1011.2
20260508144013 55 226 4.3 8.7 0.00 0.00 0.00 51 1011.2
20260508143508 56 198 1.7 7.8 0.00 0.00 0.00 48 1011.3
20260508143008 55 325 1.7 9.6 0.00 0.00 0.00 51 1011.4
20260508142507 55 233 2.6 9.6 0.00 0.00 0.00 48 1011.3
20260508142007 55 281 1.7 6.1 0.00 0.00 0.00 54 1011.6
20260508141506 54 329 2.6 7.8 0.00 0.00 0.00 48 1011.4
20260508141006 54 323 2.6 8.7 0.00 0.00 0.00 50 1011.5
20260508140505 55 318 4.3 9.6 0.00 0.00 0.00 46 1011.5
20260508140005 54 303 1.7 7.8 0.00 0.00 0.00 50 1011.6
20260508135506 54 250 2.6 10.4 0.00 0.00 0.00 49 1011.6
20260508135004 54 288 4.3 10.4 0.00 0.00 0.00 48 1011.5
20260508134504 54 225 3.5 9.6 0.00 0.00 0.00 49 1011.6
20260508134002 53 296 0.9 7.8 0.00 0.00 0.00 51 1011.5
20260508133600 54 286 2.6 7.8 0.00 0.00 0.00 52 1011.6
20260508133102 53 271 2.6 7.8 0.00 0.00 0.00 53 1011.5
20260508132558 53 338 2.6 8.7 0.00 0.00 0.00 52 1011.7
20260508132059 52 288 3.5 9.6 0.00 0.00 0.00 52 1011.6
20260508131603 52 314 3.5 9.6 0.00 0.00 0.00 52 1011.7
20260508131058 53 323 1.7 7.8 0.00 0.00 0.00 55 1011.6
20260508130557 52 265 3.5 7.8 0.00 0.00 0.00 52 1011.6
20260508130054 52 344 1.7 7.0 0.00 0.00 0.00 59 1011.6
20260508125553 51 294 1.7 6.1 0.00 0.00 0.00 59 1011.7
20260508125051 50 348 1.7 6.1 0.00 0.00 0.00 62 1011.6
20260508124555 49 260 0.0 2.6 0.00 0.00 0.00 64 1011.7
20260508124050 49 258 0.9 2.6 0.00 0.00 0.00 68 1011.8
20260508123549 49 255 0.0 2.6 0.00 0.00 0.00 68 1011.8
20260508123052 48 248 1.7 3.5 0.00 0.00 0.00 68 1011.9
20260508122547 48 248 1.7 3.5 0.00 0.00 0.00 68 1012.0
20260508122047 48 248 0.0 3.5 0.00 0.00 0.00 70 1011.9
20260508121548 47 247 0.9 3.5 0.00 0.00 0.00 70 1012.0
20260508121047 47 269 0.9 5.2 0.00 0.00 0.00 72 1012.1
20260508120547 47 270 1.7 5.2 0.00 0.00 0.00 73 1012.0
20260508120047 47 250 0.9 6.1 0.00 0.00 0.00 72 1012.1
20260508115547 46 360 2.6 6.1 0.00 0.00 0.00 75 1012.1
20260508115048 46 211 3.5 6.1 0.00 0.00 0.00 75 1012.0
20260508114547 46 273 3.5 7.8 0.00 0.00 0.00 75 1012.0
20260508114146 45 208 3.5 7.8 0.00 0.00 0.00 75 1012.1
20260508113544 45 192 2.6 7.8 0.00 0.00 0.00 76 1011.9
20260508113045 45 190 3.5 6.1 0.00 0.00 0.00 77 1011.8
20260508112543 44 226 2.6 5.2 0.00 0.00 0.00 78 1011.9
20260508112044 44 242 0.9 4.3 0.00 0.00 0.00 79 1011.8
20260508111542 43 205 0.9 3.5 0.00 0.00 0.00 79 1011.7
20260508111042 43 360 1.7 4.3 0.00 0.00 0.00 79 1011.7
20260508110541 43 360 1.7 8.7 0.00 0.00 0.00 78 1011.6
20260508110041 43 360 1.7 8.7 0.00 0.00 0.00 78 1011.7
20260508105541 43 360 2.6 7.0 0.00 0.00 0.00 78 1011.7
20260508105041 44 360 1.7 7.8 0.00 0.00 0.00 77 1011.7
20260508104541 44 360 2.6 7.8 0.00 0.00 0.00 77 1011.8
20260508104039 44 360 1.7 5.2 0.00 0.00 0.00 76 1011.6
20260508103539 44 360 0.9 5.2 0.00 0.00 0.00 76 1011.6
20260508103039 44 360 0.9 7.0 0.00 0.00 0.00 76 1011.6
20260508102537 44 360 3.5 7.0 0.00 0.00 0.00 76 1011.5
20260508102040 44 360 1.7 5.2 0.00 0.00 0.00 76 1011.5
20260508101536 44 360 1.7 4.3 0.00 0.00 0.00 76 1011.5
20260508101036 44 360 1.7 7.8 0.00 0.00 0.00 75 1011.4
20260508100534 43 360 2.6 7.8 0.00 0.00 0.00 75 1011.2